MST,Max TemperatureF,Mean TemperatureF,Min TemperatureF,Max Dew PointF,MeanDew PointF,Min DewpointF,Max Humidity, Mean Humidity, Min Humidity, Max Sea Level PressureIn, Mean Sea Level PressureIn, Min Sea Level PressureIn, Max VisibilityMiles, Mean VisibilityMiles, Min VisibilityMiles, Max Wind SpeedMPH, Mean Wind SpeedMPH, Max Gust SpeedMPH,PrecipitationIn, CloudCover, Events, WindDirDegrees
2011-11-1,41,30,19,19,10,5,69,45,23,30.42,30.36,30.22,20,16,15,10,6,,0.00,2,,286
2011-11-2,44,36,28,16,11,5,48,34,24,30.17,30.00,29.79,15,15,15,14,8,18,0.00,7,,204
2011-11-3,48,36,23,21,15,5,64,43,32,29.84,29.77,29.73,20,16,15,16,6,,0.00,6,,318
2011-11-4,24,20,12,18,15,10,92,82,74,29.98,29.91,29.85,20,11,2,9,6,,0.00,6,Fog-Snow,29
2011-11-5,33,19,5,18,9,3,92,69,37,29.94,29.85,29.81,20,16,15,10,6,,0.00,1,,337
2011-11-6,35,24,12,14,12,5,80,60,41,30.04,29.95,29.84,20,17,15,13,7,,0.00,3,,315
2011-11-7,39,26,14,16,10,5,73,49,33,30.08,30.00,29.79,15,15,15,21,10,21,0.00,3,,292
2011-11-8,39,28,17,10,7,5,68,44,24,30.44,30.24,30.06,20,16,15,21,10,28,0.00,1,,292
2011-11-9,41,28,14,19,14,5,68,54,33,30.52,30.35,30.16,15,15,15,13,4,,0.00,4,,179
2011-11-10,53,43,33,27,24,21,65,45,33,29.94,29.76,29.61,20,16,15,31,12,39,0.00,6,,249
2011-11-11,46,40,35,23,21,19,56,47,39,29.49,29.34,29.25,20,16,15,18,7,17,0.00,8,,281
2011-11-12,37,32,26,23,19,14,80,61,41,29.54,29.36,29.19,15,15,15,18,10,29,0.00,5,,256
2011-11-13,39,32,24,12,8,0,54,38,20,29.39,29.29,29.21,20,17,15,25,14,32,0.00,4,,282
2011-11-14,24,19,12,16,9,3,86,68,54,29.80,29.58,29.43,20,14,1,21,11,22,0.00,6,Snow,332
2011-11-15,21,16,10,16,6,-2,86,69,49,30.17,30.06,29.90,20,14,6,13,7,,0.00,5,Snow,314
2011-11-16,32,26,19,7,4,1,49,40,30,30.26,30.15,29.88,15,15,15,16,11,21,0.00,4,,268
2011-11-17,26,18,10,16,11,3,80,71,55,29.88,29.59,29.43,20,12,4,14,8,,0.00,6,Snow,8
2011-11-18,5,2,-2,1,-4,-8,85,77,66,30.18,30.15,30.07,12,6,2,10,7,,0.00,7,Snow,44
2011-11-19,1,-3,-11,-6,-11,-18,78,72,66,30.12,30.06,30.01,15,14,10,14,9,,0.00,3,,157
2011-11-20,21,5,-7,7,-2,-15,79,65,50,30.07,29.97,29.66,20,18,15,10,4,,0.00,4,,220
2011-11-21,37,24,12,18,8,-2,64,53,38,29.86,29.69,29.48,20,16,15,18,5,,0.00,3,,235
2011-11-22,48,34,21,30,24,14,81,61,40,29.63,29.45,29.29,20,16,15,28,11,46,0.00,4,,234
2011-11-23,48,36,23,32,28,21,93,67,46,29.47,29.35,29.26,20,13,3,33,11,45,0.00,6,,258
2011-11-24,30,22,14,27,20,12,100,92,86,29.77,29.66,29.35,20,8,0,10,4,,0.00,3,Fog,288
2011-11-25,33,28,23,16,10,3,55,46,38,30.37,29.99,29.61,15,15,15,21,13,,0.00,4,,280
2011-11-26,44,34,24,21,15,3,60,45,34,30.36,30.20,30.07,15,15,15,18,6,,0.00,5,,184
2011-11-27,51,42,32,30,27,25,80,55,35,29.84,29.69,29.56,20,17,10,47,16,61,0.00,5,Snow,244
2011-11-28,32,26,21,27,23,18,93,82,60,30.31,30.24,30.01,20,17,15,18,7,24,0.00,5,,178
2011-11-29,42,38,30,25,22,19,69,56,46,30.15,30.03,29.90,20,16,15,28,14,,0.00,6,,290
2011-11-30,28,20,10,25,17,7,93,83,69,30.73,30.52,30.05,20,7,1,21,13,25,0.00,5,Snow,341